Time,TemperatureF,DewpointF,PressureIn,WindDirection,WindDirectionDegrees,WindSpeedMPH,WindSpeedGustMPH,Humidity,HourlyPrecipIn,Conditions,Clouds,dailyrainin,SoftwareType,DateUTC
2013-06-24 00:01:00,78.6,64.5,30.06,South,183,3.6,3.6,62,0.00,,---,0.00,VWS V14.01,2013-06-24 04:01:00,
2013-06-24 00:06:00,78.4,64.3,30.06,South,181,0.0,2.7,62,0.00,,---,0.00,VWS V14.01,2013-06-24 04:06:00,
2013-06-24 00:11:00,78.4,64.8,30.06,South,183,0.0,0.0,63,0.00,,---,0.00,VWS V14.01,2013-06-24 04:11:00,
2013-06-24 00:16:00,78.3,64.6,30.06,South,183,0.0,0.0,63,0.00,,---,0.00,VWS V14.01,2013-06-24 04:16:00,
2013-06-24 00:21:00,78.3,64.6,30.06,South,183,0.0,2.7,63,0.00,,---,0.00,VWS V14.01,2013-06-24 04:21:00,
2013-06-24 00:26:00,78.3,64.6,30.06,South,184,0.0,0.0,63,0.00,,---,0.00,VWS V14.01,2013-06-24 04:26:00,
2013-06-24 00:31:00,78.3,64.6,30.06,South,183,0.0,0.0,63,0.00,,---,0.00,VWS V14.01,2013-06-24 04:31:00,
2013-06-24 00:36:00,78.3,64.6,30.06,South,183,3.1,3.6,63,0.00,,---,0.00,VWS V14.01,2013-06-24 04:36:00,
2013-06-24 00:41:00,78.3,65.1,30.06,South,183,0.0,2.7,64,0.00,,---,0.00,VWS V14.01,2013-06-24 04:41:00,
2013-06-24 00:46:00,78.1,64.9,30.06,South,183,2.7,2.7,64,0.00,,---,0.00,VWS V14.01,2013-06-24 04:46:00,
2013-06-24 00:51:00,78.1,64.9,30.06,South,183,0.0,0.0,64,0.00,,---,0.00,VWS V14.01,2013-06-24 04:51:00,
2013-06-24 00:56:00,78.1,65.4,30.06,SSE,168,2.7,3.6,65,0.00,,---,0.00,VWS V14.01,2013-06-24 04:56:00,
2013-06-24 01:01:00,78.1,65.4,30.06,SSE,161,0.0,0.0,65,0.00,,---,0.00,VWS V14.01,2013-06-24 05:01:00,
2013-06-24 01:06:00,78.1,65.9,30.06,SSE,164,0.0,0.0,66,0.00,,---,0.00,VWS V14.01,2013-06-24 05:06:00,
2013-06-24 01:11:00,77.9,65.7,30.06,SSE,164,0.0,0.0,66,0.00,,---,0.00,VWS V14.01,2013-06-24 05:11:00,
2013-06-24 01:16:00,77.9,65.7,30.06,SSE,164,0.0,0.0,66,0.00,,---,0.00,VWS V14.01,2013-06-24 05:16:00,
2013-06-24 01:21:00,77.9,65.7,30.06,SSE,164,0.0,0.0,66,0.00,,---,0.00,VWS V14.01,2013-06-24 05:21:00,
2013-06-24 01:26:00,77.9,65.7,30.06,South,184,4.0,4.9,66,0.00,,---,0.00,VWS V14.01,2013-06-24 05:26:00,
2013-06-24 01:31:00,78.1,65.4,30.06,South,169,2.2,2.7,65,0.00,,---,0.00,VWS V14.01,2013-06-24 05:31:00,
2013-06-24 01:36:00,78.1,65.4,30.06,South,184,0.0,0.0,65,0.00,,---,0.00,VWS V14.01,2013-06-24 05:36:00,
2013-06-24 01:41:00,78.1,64.9,30.06,SSE,156,3.1,4.9,64,0.00,,---,0.00,VWS V14.01,2013-06-24 05:41:00,
2013-06-24 01:47:00,78.1,64.9,30.06,South,187,4.9,4.9,64,0.00,,---,0.00,VWS V14.01,2013-06-24 05:47:00,
2013-06-24 01:52:00,78.1,64.9,30.06,South,171,2.7,2.7,64,0.00,,---,0.00,VWS V14.01,2013-06-24 05:52:00,
2013-06-24 01:57:00,78.1,64.9,30.06,South,170,0.0,0.0,64,0.00,,---,0.00,VWS V14.01,2013-06-24 05:57:00,
2013-06-24 02:02:00,78.1,64.9,30.06,South,184,0.0,0.0,64,0.00,,---,0.00,VWS V14.01,2013-06-24 06:02:00,
2013-06-24 02:07:00,78.1,64.9,30.06,South,184,0.0,0.0,64,0.00,,---,0.00,VWS V14.01,2013-06-24 06:07:00,
2013-06-24 02:12:00,78.1,65.4,30.06,South,185,2.2,2.2,65,0.00,,---,0.00,VWS V14.01,2013-06-24 06:12:00,
2013-06-24 02:17:00,77.9,65.2,30.06,South,172,3.1,3.1,65,0.00,,---,0.00,VWS V14.01,2013-06-24 06:17:00,
2013-06-24 02:22:00,77.9,66.2,30.06,South,184,0.0,0.0,67,0.00,,---,0.00,VWS V14.01,2013-06-24 06:22:00,
2013-06-24 02:27:00,77.7,66.0,30.06,SSE,168,0.0,2.7,67,0.00,,---,0.00,VWS V14.01,2013-06-24 06:27:00,
2013-06-24 02:32:00,77.7,66.0,30.06,SSE,168,0.0,0.0,67,0.00,,---,0.00,VWS V14.01,2013-06-24 06:32:00,
2013-06-24 02:37:00,77.7,66.4,30.06,South,176,0.0,0.0,68,0.00,,---,0.00,VWS V14.01,2013-06-24 06:37:00,
2013-06-24 02:42:00,77.5,66.3,30.06,South,176,0.0,0.0,68,0.00,,---,0.00,VWS V14.01,2013-06-24 06:42:00,
2013-06-24 02:47:00,77.5,66.7,30.06,South,176,0.0,0.0,69,0.00,,---,0.00,VWS V14.01,2013-06-24 06:47:00,
2013-06-24 02:52:00,77.5,66.7,30.06,South,176,2.7,2.7,69,0.00,,---,0.00,VWS V14.01,2013-06-24 06:52:00,
2013-06-24 02:58:00,77.4,66.5,30.06,South,176,0.0,0.0,69,0.00,,---,0.00,VWS V14.01,2013-06-24 06:58:00,
2013-06-24 03:03:00,77.4,67.0,30.06,South,176,0.0,0.0,70,0.00,,---,0.00,VWS V14.01,2013-06-24 07:03:00,
2013-06-24 03:08:00,77.2,66.8,30.06,South,176,0.0,0.0,70,0.00,,---,0.00,VWS V14.01,2013-06-24 07:08:00,
2013-06-24 03:13:00,77.2,67.2,30.06,South,176,0.0,0.0,71,0.00,,---,0.00,VWS V14.01,2013-06-24 07:13:00,
2013-06-24 03:18:00,77.0,67.1,30.06,South,176,0.0,0.0,71,0.00,,---,0.00,VWS V14.01,2013-06-24 07:18:00,
2013-06-24 03:23:00,77.0,67.5,30.06,South,176,0.0,0.0,72,0.00,,---,0.00,VWS V14.01,2013-06-24 07:23:00,
2013-06-24 03:28:00,77.0,67.9,30.06,South,176,0.0,0.0,74,0.00,,---,0.00,VWS V14.01,2013-06-24 07:28:00,
2013-06-24 03:33:00,77.0,68.7,30.06,South,176,0.0,0.0,76,0.00,,---,0.00,VWS V14.01,2013-06-24 07:33:00,
2013-06-24 03:38:00,76.8,68.9,30.06,South,176,0.0,0.0,77,0.00,,---,0.00,VWS V14.01,2013-06-24 07:38:00,
2013-06-24 03:43:00,76.8,68.9,30.06,South,176,0.0,0.0,77,0.00,,---,0.00,VWS V14.01,2013-06-24 07:43:00,
2013-06-24 03:48:00,76.8,69.3,30.06,South,176,0.0,0.0,78,0.00,,---,0.00,VWS V14.01,2013-06-24 07:48:00,
2013-06-24 03:53:00,76.8,69.3,30.06,South,176,0.0,0.0,78,0.00,,---,0.00,VWS V14.01,2013-06-24 07:53:00,
2013-06-24 03:58:00,76.8,69.7,30.06,South,176,0.0,0.0,79,0.00,,---,0.00,VWS V14.01,2013-06-24 07:58:00,
2013-06-24 04:04:00,76.6,69.6,30.06,South,176,0.0,0.0,79,0.00,,---,0.00,VWS V14.01,2013-06-24 08:04:00,
2013-06-24 04:09:00,76.6,69.6,30.06,South,176,0.0,0.0,79,0.00,,---,0.00,VWS V14.01,2013-06-24 08:09:00,
2013-06-24 04:14:00,76.6,69.9,30.06,South,176,0.0,0.0,80,0.00,,---,0.00,VWS V14.01,2013-06-24 08:14:00,
2013-06-24 04:19:00,76.6,69.9,30.06,South,176,0.0,0.0,80,0.00,,---,0.00,VWS V14.01,2013-06-24 08:19:00,
2013-06-24 04:24:00,76.6,70.3,30.06,South,176,0.0,0.0,81,0.00,,---,0.00,VWS V14.01,2013-06-24 08:24:00,
2013-06-24 04:29:00,76.6,70.3,30.06,South,176,0.0,0.0,81,0.00,,---,0.00,VWS V14.01,2013-06-24 08:29:00,
2013-06-24 04:34:00,76.6,70.7,30.06,South,176,0.0,0.0,82,0.00,,---,0.00,VWS V14.01,2013-06-24 08:34:00,
2013-06-24 04:39:00,76.6,70.7,30.06,South,176,0.0,2.7,82,0.00,,---,0.00,VWS V14.01,2013-06-24 08:39:00,
2013-06-24 04:44:00,76.6,70.7,30.06,South,176,0.0,0.0,82,0.00,,---,0.00,VWS V14.01,2013-06-24 08:44:00,
2013-06-24 04:49:00,76.6,70.7,30.06,South,176,0.0,0.0,82,0.00,,---,0.00,VWS V14.01,2013-06-24 08:49:00,
2013-06-24 04:54:00,76.6,70.7,30.06,South,176,0.0,0.0,82,0.00,,---,0.00,VWS V14.01,2013-06-24 08:54:00,
2013-06-24 04:59:00,76.6,70.7,30.06,South,176,0.0,0.0,82,0.00,,---,0.00,VWS V14.01,2013-06-24 08:59:00,
2013-06-24 05:04:00,76.6,70.7,30.06,South,176,0.0,0.0,82,0.00,,---,0.00,VWS V14.01,2013-06-24 09:04:00,
2013-06-24 05:09:00,76.5,70.5,30.06,South,176,0.0,0.0,82,0.00,,---,0.00,VWS V14.01,2013-06-24 09:09:00,
2013-06-24 05:14:00,76.5,70.5,30.06,South,176,0.0,0.0,82,0.00,,---,0.00,VWS V14.01,2013-06-24 09:14:00,
2013-06-24 05:19:00,76.5,70.9,30.06,South,176,0.0,0.0,83,0.00,,---,0.00,VWS V14.01,2013-06-24 09:19:00,
2013-06-24 05:25:00,76.5,70.9,30.06,South,176,0.0,0.0,83,0.00,,---,0.00,VWS V14.01,2013-06-24 09:25:00,
2013-06-24 05:30:00,76.5,70.9,30.06,South,176,0.0,0.0,83,0.00,,---,0.00,VWS V14.01,2013-06-24 09:30:00,
2013-06-24 05:35:00,76.3,70.7,30.06,South,176,0.0,0.0,83,0.00,,---,0.00,VWS V14.01,2013-06-24 09:35:00,
2013-06-24 05:40:00,76.3,70.7,30.06,South,176,0.0,0.0,83,0.00,,---,0.00,VWS V14.01,2013-06-24 09:40:00,
2013-06-24 05:45:00,76.3,70.7,30.06,South,176,0.0,0.0,83,0.00,,---,0.00,VWS V14.01,2013-06-24 09:45:00,
2013-06-24 05:50:00,76.3,71.1,30.06,South,176,0.0,0.0,84,0.00,,---,0.00,VWS V14.01,2013-06-24 09:50:00,
2013-06-24 05:55:00,76.3,71.1,30.06,South,176,0.0,0.0,84,0.00,,---,0.00,VWS V14.01,2013-06-24 09:55:00,
2013-06-24 06:00:00,76.3,71.1,30.06,South,176,0.0,0.0,84,0.00,,---,0.00,VWS V14.01,2013-06-24 10:00:00,
2013-06-24 06:05:00,76.3,71.1,30.06,South,176,0.0,0.0,84,0.00,,---,0.00,VWS V14.01,2013-06-24 10:05:00,
2013-06-24 06:10:00,76.3,71.1,30.06,South,176,0.0,0.0,84,0.00,,---,0.00,VWS V14.01,2013-06-24 10:10:00,
2013-06-24 06:15:00,76.3,71.1,30.06,South,176,0.0,0.0,84,0.00,,---,0.00,VWS V14.01,2013-06-24 10:15:00,
2013-06-24 06:20:00,76.3,71.1,30.06,South,176,0.0,0.0,84,0.00,,---,0.00,VWS V14.01,2013-06-24 10:20:00,
2013-06-24 06:25:00,76.1,70.9,30.06,South,176,0.0,0.0,84,0.00,,---,0.00,VWS V14.01,2013-06-24 10:25:00,
2013-06-24 06:30:00,76.1,70.9,30.06,South,176,0.0,0.0,84,0.00,,---,0.00,VWS V14.01,2013-06-24 10:30:00,
2013-06-24 06:35:00,76.1,71.3,30.06,South,176,0.0,0.0,85,0.00,,---,0.00,VWS V14.01,2013-06-24 10:35:00,
2013-06-24 06:40:00,76.1,71.3,30.06,South,176,0.0,0.0,85,0.00,,---,0.00,VWS V14.01,2013-06-24 10:40:00,
2013-06-24 06:45:00,76.3,71.5,30.06,South,176,0.0,0.0,85,0.00,,---,0.00,VWS V14.01,2013-06-24 10:45:00,
2013-06-24 06:50:00,76.3,71.8,30.06,South,176,0.0,0.0,86,0.00,,---,0.00,VWS V14.01,2013-06-24 10:50:00,
2013-06-24 06:55:00,76.5,72.0,30.06,South,176,0.0,0.0,86,0.00,,---,0.00,VWS V14.01,2013-06-24 10:55:00,
2013-06-24 07:01:00,76.5,72.0,30.06,South,176,0.0,0.0,86,0.00,,---,0.00,VWS V14.01,2013-06-24 11:01:00,
2013-06-24 07:05:00,76.6,72.2,30.06,South,176,0.0,0.0,86,0.00,,---,0.00,VWS V14.01,2013-06-24 11:05:00,
2013-06-24 07:11:00,76.8,72.7,30.06,South,176,0.0,0.0,87,0.00,,---,0.00,VWS V14.01,2013-06-24 11:11:00,
2013-06-24 07:16:00,77.0,72.5,30.06,South,176,2.7,2.7,86,0.00,,---,0.00,VWS V14.01,2013-06-24 11:16:00,
2013-06-24 07:21:00,77.2,72.7,30.06,South,176,0.0,0.0,86,0.00,,---,0.00,VWS V14.01,2013-06-24 11:21:00,
2013-06-24 07:26:00,77.4,72.9,30.06,South,174,0.0,0.0,86,0.00,,---,0.00,VWS V14.01,2013-06-24 11:26:00,
2013-06-24 07:31:00,77.7,72.9,30.06,South,174,2.2,2.2,85,0.00,,---,0.00,VWS V14.01,2013-06-24 11:31:00,
2013-06-24 07:36:00,77.9,72.7,30.09,South,180,0.0,3.6,84,0.00,,---,0.00,VWS V14.01,2013-06-24 11:36:00,
2013-06-24 07:41:00,78.1,72.5,30.09,South,179,2.2,3.6,83,0.00,,---,0.00,VWS V14.01,2013-06-24 11:41:00,
2013-06-24 07:46:00,78.3,72.3,30.09,South,179,0.0,0.0,82,0.00,,---,0.00,VWS V14.01,2013-06-24 11:46:00,
2013-06-24 07:51:00,78.3,70.3,30.09,South,175,2.2,5.8,77,0.00,,---,0.00,VWS V14.01,2013-06-24 11:51:00,
2013-06-24 07:56:00,78.6,69.0,30.09,South,175,2.7,4.0,72,0.00,,---,0.00,VWS V14.01,2013-06-24 11:56:00,
2013-06-24 08:01:00,78.8,67.0,30.09,SSE,167,0.0,4.0,67,0.00,,---,0.00,VWS V14.01,2013-06-24 12:01:00,
2013-06-24 08:07:00,79.3,66.6,30.09,SSE,166,0.0,3.6,65,0.00,,---,0.00,VWS V14.01,2013-06-24 12:07:00,
2013-06-24 08:12:00,79.7,65.5,30.09,South,181,0.0,3.1,62,0.00,,---,0.00,VWS V14.01,2013-06-24 12:12:00,
2013-06-24 08:17:00,80.1,64.9,30.09,South,186,0.0,2.7,60,0.00,,---,0.00,VWS V14.01,2013-06-24 12:17:00,
2013-06-24 08:22:00,80.2,64.0,30.09,SSE,160,0.0,3.6,58,0.00,,---,0.00,VWS V14.01,2013-06-24 12:22:00,
2013-06-24 08:27:00,80.6,62.2,30.09,South,172,0.0,2.2,54,0.00,,---,0.00,VWS V14.01,2013-06-24 12:27:00,
2013-06-24 08:32:00,80.4,59.7,30.09,SSE,167,5.4,6.3,49,0.00,,---,0.00,VWS V14.01,2013-06-24 12:32:00,
2013-06-24 08:37:00,80.8,60.1,30.09,South,174,6.3,6.3,49,0.00,,---,0.00,VWS V14.01,2013-06-24 12:37:00,
2013-06-24 08:42:00,81.1,59.8,30.09,SSE,163,8.1,8.1,48,0.00,,---,0.00,VWS V14.01,2013-06-24 12:42:00,
2013-06-24 08:47:00,81.5,59.5,30.09,SSW,204,4.9,4.9,47,0.00,,---,0.00,VWS V14.01,2013-06-24 12:47:00,
2013-06-24 08:52:00,82.0,59.4,30.09,SSE,167,3.1,6.7,46,0.00,,---,0.00,VWS V14.01,2013-06-24 12:52:00,
2013-06-24 08:57:00,82.2,58.9,30.09,South,190,3.6,4.9,45,0.00,,---,0.00,VWS V14.01,2013-06-24 12:57:00,
2013-06-24 09:03:00,82.0,59.4,30.09,SSW,200,2.2,7.2,46,0.00,,---,0.00,VWS V14.01,2013-06-24 13:03:00,
2013-06-24 09:08:00,82.0,59.4,30.09,SSE,168,3.1,3.1,46,0.00,,---,0.00,VWS V14.01,2013-06-24 13:08:00,
2013-06-24 09:13:00,82.4,59.7,30.09,South,177,3.6,3.6,46,0.00,,---,0.00,VWS V14.01,2013-06-24 13:13:00,
2013-06-24 09:18:00,82.4,57.7,30.09,SSE,167,4.0,6.3,43,0.00,,---,0.00,VWS V14.01,2013-06-24 13:18:00,
2013-06-24 09:23:00,82.6,58.5,30.09,South,170,3.6,4.0,44,0.00,,---,0.00,VWS V14.01,2013-06-24 13:23:00,
2013-06-24 09:28:00,82.8,58.7,30.09,SSE,154,0.0,3.6,44,0.00,,---,0.00,VWS V14.01,2013-06-24 13:28:00,
2013-06-24 09:33:00,82.9,57.5,30.09,South,169,3.1,3.1,42,0.00,,---,0.00,VWS V14.01,2013-06-24 13:33:00,
2013-06-24 09:38:00,83.3,58.5,30.09,South,172,0.0,0.0,43,0.00,,---,0.00,VWS V14.01,2013-06-24 13:38:00,
2013-06-24 09:43:00,83.3,55.7,30.09,South,176,3.6,8.3,39,0.00,,---,0.00,VWS V14.01,2013-06-24 13:43:00,
2013-06-24 09:48:00,83.5,56.6,30.09,South,181,2.2,3.1,40,0.00,,---,0.00,VWS V14.01,2013-06-24 13:48:00,
2013-06-24 09:53:00,83.8,57.6,30.09,South,175,3.1,4.5,41,0.00,,---,0.00,VWS V14.01,2013-06-24 13:53:00,
2013-06-24 09:58:00,84.2,55.7,30.09,South,169,4.0,5.4,38,0.00,,---,0.00,VWS V14.01,2013-06-24 13:58:00,
2013-06-24 10:03:00,84.9,55.6,30.09,South,172,3.6,3.6,37,0.00,,---,0.00,VWS V14.01,2013-06-24 14:03:00,
2013-06-24 10:09:00,85.3,56.7,30.09,West,268,2.7,4.0,38,0.00,,---,0.00,VWS V14.01,2013-06-24 14:09:00,
2013-06-24 10:14:00,85.5,56.1,30.09,South,178,3.6,4.0,37,0.00,,---,0.00,VWS V14.01,2013-06-24 14:14:00,
2013-06-24 10:19:00,85.6,57.8,30.09,South,184,0.0,0.0,39,0.00,,---,0.00,VWS V14.01,2013-06-24 14:19:00,
2013-06-24 10:24:00,85.6,54.6,30.09,South,179,2.7,2.7,35,0.00,,---,0.00,VWS V14.01,2013-06-24 14:24:00,
2013-06-24 10:29:00,85.6,55.4,30.09,South,174,0.0,0.0,36,0.00,,---,0.00,VWS V14.01,2013-06-24 14:29:00,
2013-06-24 10:34:00,85.8,58.7,30.09,South,182,2.7,2.7,40,0.00,,---,0.00,VWS V14.01,2013-06-24 14:34:00,
2013-06-24 10:39:00,86.2,55.9,30.09,South,186,3.1,3.1,36,0.00,,---,0.00,VWS V14.01,2013-06-24 14:39:00,
2013-06-24 10:44:00,86.2,54.2,30.09,South,178,3.1,4.0,34,0.00,,---,0.00,VWS V14.01,2013-06-24 14:44:00,
2013-06-24 10:49:00,86.0,54.1,30.09,South,182,0.0,2.2,34,0.00,,---,0.00,VWS V14.01,2013-06-24 14:49:00,
2013-06-24 10:54:00,86.0,53.2,30.09,South,178,2.7,5.4,33,0.00,,---,0.00,VWS V14.01,2013-06-24 14:54:00,
2013-06-24 10:59:00,86.2,53.4,30.09,SSE,160,5.8,5.8,33,0.00,,---,0.00,VWS V14.01,2013-06-24 14:59:00,
2013-06-24 11:04:00,86.5,54.5,30.09,South,170,2.7,3.1,34,0.00,,---,0.00,VWS V14.01,2013-06-24 15:04:00,
2013-06-24 11:09:00,86.9,55.7,30.09,South,170,0.0,0.0,35,0.00,,---,0.00,VWS V14.01,2013-06-24 15:09:00,
2013-06-24 11:14:00,86.7,52.9,30.09,South,172,0.0,4.9,31,0.00,,---,0.00,VWS V14.01,2013-06-24 15:14:00,
2013-06-24 11:20:00,87.1,53.2,30.09,SSW,200,0.0,0.0,31,0.00,,---,0.00,VWS V14.01,2013-06-24 15:20:00,
2013-06-24 11:25:00,87.4,53.6,30.09,SSE,149,0.0,4.0,31,0.00,,---,0.00,VWS V14.01,2013-06-24 15:25:00,
2013-06-24 11:30:00,87.3,52.5,30.09,South,170,5.8,6.7,30,0.00,,---,0.00,VWS V14.01,2013-06-24 15:30:00,
2013-06-24 11:35:00,87.6,53.7,30.09,SW,231,4.0,4.0,31,0.00,,---,0.00,VWS V14.01,2013-06-24 15:35:00,
2013-06-24 11:40:00,87.6,52.8,30.09,SSW,196,2.7,2.7,30,0.00,,---,0.00,VWS V14.01,2013-06-24 15:40:00,
2013-06-24 11:45:00,87.6,51.8,30.09,South,184,2.2,3.6,29,0.00,,---,0.00,VWS V14.01,2013-06-24 15:45:00,
2013-06-24 11:50:00,87.8,52.0,30.09,SSE,157,3.6,5.8,29,0.00,,---,0.00,VWS V14.01,2013-06-24 15:50:00,
2013-06-24 11:55:00,87.8,51.0,30.09,SW,236,3.6,3.6,28,0.00,,---,0.00,VWS V14.01,2013-06-24 15:55:00,
2013-06-24 12:01:00,88.2,52.3,30.09,South,179,3.6,3.6,29,0.00,,---,0.00,VWS V14.01,2013-06-24 16:01:00,
2013-06-24 12:06:00,88.7,50.8,30.09,South,179,3.6,4.0,27,0.00,,---,0.00,VWS V14.01,2013-06-24 16:06:00,
2013-06-24 12:11:00,88.9,52.9,30.09,South,183,0.0,2.7,29,0.00,,---,0.00,VWS V14.01,2013-06-24 16:11:00,
2013-06-24 12:16:00,88.9,52.9,30.09,SSE,163,4.0,4.0,29,0.00,,---,0.00,VWS V14.01,2013-06-24 16:16:00,
2013-06-24 12:21:00,89.2,51.2,30.09,SSE,165,3.6,4.0,27,0.00,,---,0.00,VWS V14.01,2013-06-24 16:21:00,
2013-06-24 12:26:00,89.6,51.5,30.09,South,175,0.0,0.0,27,0.00,,---,0.00,VWS V14.01,2013-06-24 16:26:00,
2013-06-24 12:31:00,89.8,52.7,30.09,NW,305,0.0,0.0,28,0.00,,---,0.00,VWS V14.01,2013-06-24 16:31:00,
2013-06-24 12:36:00,90.0,50.8,30.09,NE,48,2.7,2.7,26,0.00,,---,0.00,VWS V14.01,2013-06-24 16:36:00,
2013-06-24 12:41:00,90.0,50.8,30.09,SSW,199,0.0,0.0,26,0.00,,---,0.00,VWS V14.01,2013-06-24 16:41:00,
2013-06-24 12:46:00,90.1,48.7,30.09,NE,36,4.0,4.0,24,0.00,,---,0.00,VWS V14.01,2013-06-24 16:46:00,
2013-06-24 12:51:00,90.7,49.1,30.09,North,357,3.1,3.1,24,0.00,,---,0.00,VWS V14.01,2013-06-24 16:51:00,
2013-06-24 12:56:00,90.9,48.1,30.09,SSE,165,3.1,3.1,23,0.00,,---,0.00,VWS V14.01,2013-06-24 16:56:00,
2013-06-24 13:01:00,90.3,46.4,30.09,South,188,3.1,3.6,22,0.00,,---,0.00,VWS V14.01,2013-06-24 17:01:00,
2013-06-24 13:06:00,89.2,47.9,30.09,South,188,0.0,0.0,24,0.00,,---,0.00,VWS V14.01,2013-06-24 17:06:00,
2013-06-24 13:11:00,88.7,49.7,30.09,South,172,0.0,3.1,26,0.00,,---,0.00,VWS V14.01,2013-06-24 17:11:00,
2013-06-24 13:16:00,89.6,51.5,30.09,SSE,167,0.0,0.0,27,0.00,,---,0.00,VWS V14.01,2013-06-24 17:16:00,
2013-06-24 13:21:00,89.8,49.5,30.09,SSE,155,2.2,2.2,25,0.00,,---,0.00,VWS V14.01,2013-06-24 17:21:00,
2013-06-24 13:27:00,89.1,52.1,30.09,SSE,155,0.0,0.0,28,0.00,,---,0.00,VWS V14.01,2013-06-24 17:27:00,
2013-06-24 13:32:00,88.0,53.1,30.09,SSE,155,2.7,3.6,30,0.00,,---,0.00,VWS V14.01,2013-06-24 17:32:00,
2013-06-24 13:37:00,87.4,52.6,30.06,NNE,21,3.6,4.9,30,0.00,,---,0.00,VWS V14.01,2013-06-24 17:37:00,
2013-06-24 13:42:00,87.3,52.5,30.06,North,353,2.7,4.0,30,0.00,,---,0.00,VWS V14.01,2013-06-24 17:42:00,
2013-06-24 13:47:00,87.1,52.3,30.06,ENE,60,5.4,5.4,30,0.00,,---,0.00,VWS V14.01,2013-06-24 17:47:00,
2013-06-24 13:52:00,87.1,52.3,30.06,North,2,5.4,7.6,30,0.00,,---,0.00,VWS V14.01,2013-06-24 17:52:00,
2013-06-24 13:57:00,87.1,52.3,30.06,SSE,167,5.4,5.4,30,0.00,,---,0.00,VWS V14.01,2013-06-24 17:57:00,
2013-06-24 14:02:00,86.4,53.5,30.06,South,182,7.2,7.2,33,0.00,,---,0.00,VWS V14.01,2013-06-24 18:02:00,
2013-06-24 14:07:00,84.7,59.8,30.06,South,170,2.2,4.9,43,0.00,,---,0.00,VWS V14.01,2013-06-24 18:07:00,
2013-06-24 14:12:00,79.9,62.6,30.06,South,181,2.7,4.0,56,0.00,,---,0.00,VWS V14.01,2013-06-24 18:12:00,
2013-06-24 14:17:00,77.9,67.5,30.06,South,179,0.0,0.0,70,0.00,,---,0.00,VWS V14.01,2013-06-24 18:17:00,
2013-06-24 14:22:00,77.2,70.1,30.06,South,178,0.0,0.0,79,0.00,,---,0.00,VWS V14.01,2013-06-24 18:22:00,
2013-06-24 14:27:00,76.8,70.9,30.06,NW,314,0.0,0.0,82,0.00,,---,0.00,VWS V14.01,2013-06-24 18:27:00,
2013-06-24 14:32:00,76.1,70.2,30.06,SSW,195,0.0,0.0,82,0.00,,---,0.00,VWS V14.01,2013-06-24 18:32:00,
2013-06-24 14:38:00,76.3,71.1,30.06,SSW,195,0.0,0.0,84,0.00,,---,0.00,VWS V14.01,2013-06-24 18:38:00,
2013-06-24 14:43:00,76.6,72.5,30.06,SSW,195,0.0,0.0,87,0.00,,---,0.00,VWS V14.01,2013-06-24 18:43:00,
2013-06-24 14:48:00,77.0,73.2,30.06,SSW,195,0.0,0.0,88,0.00,,---,0.00,VWS V14.01,2013-06-24 18:48:00,
2013-06-24 14:53:00,77.7,74.3,30.06,SSW,195,0.0,0.0,89,0.00,,---,0.00,VWS V14.01,2013-06-24 18:53:00,
2013-06-24 14:58:00,78.8,76.1,30.06,SSW,195,0.0,0.0,91,0.00,,---,0.00,VWS V14.01,2013-06-24 18:58:00,
2013-06-24 15:03:00,79.3,76.3,30.06,SSW,194,0.0,0.0,90,0.00,,---,0.00,VWS V14.01,2013-06-24 19:03:00,
2013-06-24 15:08:00,80.1,77.0,30.06,ENE,75,0.0,0.0,90,0.00,,---,0.00,VWS V14.01,2013-06-24 19:08:00,
2013-06-24 15:13:00,80.4,77.7,30.06,ENE,75,0.0,0.0,91,0.00,,---,0.00,VWS V14.01,2013-06-24 19:13:00,
2013-06-24 15:18:00,81.0,78.2,30.03,ENE,75,0.0,0.0,91,0.00,,---,0.00,VWS V14.01,2013-06-24 19:18:00,
2013-06-24 15:23:00,82.0,78.9,30.03,East,92,0.0,2.2,90,0.00,,---,0.00,VWS V14.01,2013-06-24 19:23:00,
2013-06-24 15:28:00,81.7,71.1,30.03,South,185,0.0,3.6,70,0.00,,---,0.00,VWS V14.01,2013-06-24 19:28:00,
2013-06-24 15:33:00,81.7,67.4,30.03,South,171,0.0,2.7,62,0.00,,---,0.00,VWS V14.01,2013-06-24 19:33:00,
2013-06-24 15:39:00,82.2,68.4,30.03,ENE,72,0.0,2.2,63,0.00,,---,0.00,VWS V14.01,2013-06-24 19:39:00,
2013-06-24 15:44:00,82.2,67.4,30.03,ENE,72,0.0,2.7,61,0.00,,---,0.00,VWS V14.01,2013-06-24 19:44:00,
2013-06-24 15:49:00,82.0,64.6,30.03,South,179,0.0,3.6,56,0.00,,---,0.00,VWS V14.01,2013-06-24 19:49:00,
2013-06-24 15:54:00,81.9,63.4,30.03,East,80,2.2,2.7,54,0.00,,---,0.00,VWS V14.01,2013-06-24 19:54:00,
2013-06-24 15:59:00,82.0,64.1,30.03,ENE,78,2.2,2.2,55,0.00,,---,0.00,VWS V14.01,2013-06-24 19:59:00,
2013-06-24 16:04:00,81.7,63.8,30.03,SSE,168,2.2,2.2,55,0.00,,---,0.00,VWS V14.01,2013-06-24 20:04:00,
2013-06-24 16:09:00,82.0,64.1,30.03,South,174,0.0,0.0,55,0.00,,---,0.00,VWS V14.01,2013-06-24 20:09:00,
2013-06-24 16:14:00,82.0,62.4,30.03,South,170,2.2,6.3,51,0.00,,---,0.00,VWS V14.01,2013-06-24 20:14:00,
2013-06-24 16:19:00,82.6,62.9,30.03,East,87,0.0,2.7,51,0.00,,---,0.00,VWS V14.01,2013-06-24 20:19:00,
2013-06-24 16:24:00,82.9,58.2,30.03,ENE,69,2.2,6.3,43,0.00,,---,0.00,VWS V14.01,2013-06-24 20:24:00,
2013-06-24 16:29:00,83.7,58.2,30.03,South,176,4.5,4.5,42,0.00,,---,0.00,VWS V14.01,2013-06-24 20:29:00,
2013-06-24 16:34:00,83.8,58.3,30.03,South,180,3.6,4.0,42,0.00,,---,0.00,VWS V14.01,2013-06-24 20:34:00,
2013-06-24 16:39:00,84.2,57.9,30.03,East,99,3.6,3.6,41,0.00,,---,0.00,VWS V14.01,2013-06-24 20:39:00,
2013-06-24 16:44:00,84.7,56.2,30.03,South,181,3.6,3.6,38,0.00,,---,0.00,VWS V14.01,2013-06-24 20:44:00,
2013-06-24 16:49:00,84.9,57.1,30.03,South,186,2.7,3.6,39,0.00,,---,0.00,VWS V14.01,2013-06-24 20:49:00,
2013-06-24 16:54:00,84.9,52.3,30.03,SSE,164,3.1,5.4,33,0.00,,---,0.00,VWS V14.01,2013-06-24 20:54:00,
2013-06-24 16:59:00,85.1,52.4,30.03,SSW,209,3.1,3.1,33,0.00,,---,0.00,VWS V14.01,2013-06-24 20:59:00,
2013-06-24 17:04:00,85.5,52.7,30.00,South,186,3.6,3.6,33,0.00,,---,0.00,VWS V14.01,2013-06-24 21:04:00,
2013-06-24 17:09:00,85.8,54.8,30.00,SSE,167,3.6,5.8,35,0.00,,---,0.00,VWS V14.01,2013-06-24 21:09:00,
2013-06-24 17:14:00,85.8,53.9,30.00,SSE,148,0.0,2.2,34,0.00,,---,0.00,VWS V14.01,2013-06-24 21:14:00,
2013-06-24 17:20:00,86.0,54.1,30.00,South,172,5.8,5.8,34,0.00,,---,0.00,VWS V14.01,2013-06-24 21:20:00,
2013-06-24 17:25:00,86.2,55.1,30.00,South,169,2.2,3.6,35,0.00,,---,0.00,VWS V14.01,2013-06-24 21:25:00,
2013-06-24 17:30:00,87.3,54.3,30.00,SE,127,2.7,4.9,33,0.00,,---,0.00,VWS V14.01,2013-06-24 21:30:00,
2013-06-24 17:35:00,88.7,52.8,30.00,SW,217,6.3,6.3,29,0.00,,---,0.00,VWS V14.01,2013-06-24 21:35:00,
2013-06-24 17:40:00,91.2,51.8,30.00,SE,146,2.7,2.7,26,0.00,,---,0.00,VWS V14.01,2013-06-24 21:40:00,
2013-06-24 17:45:00,92.1,47.9,30.00,SSE,158,0.0,2.2,22,0.00,,---,0.00,VWS V14.01,2013-06-24 21:45:00,
2013-06-24 17:50:00,93.0,47.3,30.00,SW,216,4.0,4.0,21,0.00,,---,0.00,VWS V14.01,2013-06-24 21:50:00,
2013-06-24 17:55:00,94.1,46.9,30.00,ESE,121,3.1,4.0,20,0.00,,---,0.00,VWS V14.01,2013-06-24 21:55:00,
2013-06-24 18:00:00,93.4,46.3,30.00,SSE,168,4.0,4.0,20,0.00,,---,0.00,VWS V14.01,2013-06-24 22:00:00,
2013-06-24 18:05:00,92.7,47.1,30.00,ESE,104,4.0,4.5,21,0.00,,---,0.00,VWS V14.01,2013-06-24 22:05:00,
2013-06-24 18:10:00,88.9,51.9,30.00,SSE,164,2.7,5.8,28,0.00,,---,0.00,VWS V14.01,2013-06-24 22:10:00,
2013-06-24 18:15:00,86.5,52.8,30.00,SSE,157,2.2,3.6,31,0.00,,---,0.00,VWS V14.01,2013-06-24 22:15:00,
2013-06-24 18:20:00,85.1,52.4,30.00,SSE,165,0.0,8.1,33,0.00,,---,0.00,VWS V14.01,2013-06-24 22:20:00,
2013-06-24 18:25:00,84.6,54.5,30.00,SSE,150,5.4,5.8,36,0.00,,---,0.00,VWS V14.01,2013-06-24 22:25:00,
2013-06-24 18:30:00,84.0,55.6,30.00,ESE,120,2.7,3.6,38,0.00,,---,0.00,VWS V14.01,2013-06-24 22:30:00,
2013-06-24 18:35:00,83.7,56.0,30.00,South,182,6.3,7.6,39,0.00,,---,0.00,VWS V14.01,2013-06-24 22:35:00,
2013-06-24 18:40:00,83.7,55.2,30.00,SSE,167,0.0,0.0,38,0.00,,---,0.00,VWS V14.01,2013-06-24 22:40:00,
2013-06-24 18:45:00,83.5,57.3,30.00,South,170,5.4,5.4,41,0.00,,---,0.00,VWS V14.01,2013-06-24 22:45:00,
2013-06-24 18:50:00,83.5,56.6,30.00,SSE,162,0.0,0.0,40,0.00,,---,0.00,VWS V14.01,2013-06-24 22:50:00,
2013-06-24 18:55:00,83.3,55.7,30.00,SSE,162,0.0,8.1,39,0.00,,---,0.00,VWS V14.01,2013-06-24 22:55:00,
2013-06-24 19:00:00,83.3,56.4,30.00,ESE,102,3.1,3.1,40,0.00,,---,0.00,VWS V14.01,2013-06-24 23:00:00,
2013-06-24 19:05:00,83.1,57.7,30.00,SW,217,3.1,3.1,42,0.00,,---,0.00,VWS V14.01,2013-06-24 23:05:00,
2013-06-24 19:10:00,82.8,56.7,30.00,South,173,5.8,5.8,41,0.00,,---,0.00,VWS V14.01,2013-06-24 23:10:00,
2013-06-24 19:15:00,82.6,57.9,30.00,SE,139,2.2,2.2,43,0.00,,---,0.00,VWS V14.01,2013-06-24 23:15:00,
2013-06-24 19:20:00,82.2,58.2,30.00,East,95,3.1,3.1,44,0.00,,---,0.00,VWS V14.01,2013-06-24 23:20:00,
2013-06-24 19:25:00,81.9,57.2,30.00,SSE,149,2.2,2.7,43,0.00,,---,0.00,VWS V14.01,2013-06-24 23:25:00,
2013-06-24 19:30:00,81.7,58.4,30.00,ESE,106,0.0,0.0,45,0.00,,---,0.00,VWS V14.01,2013-06-24 23:30:00,
2013-06-24 19:35:00,81.3,58.7,30.00,East,90,0.0,0.0,46,0.00,,---,0.00,VWS V14.01,2013-06-24 23:35:00,
2013-06-24 19:40:00,81.3,59.3,30.00,SSE,165,0.0,2.7,47,0.00,,---,0.00,VWS V14.01,2013-06-24 23:40:00,
2013-06-24 19:45:00,81.1,58.5,30.00,SE,126,2.7,3.6,46,0.00,,---,0.00,VWS V14.01,2013-06-24 23:45:00,
2013-06-24 19:50:00,81.0,58.4,30.03,SE,142,0.0,0.0,46,0.00,,---,0.00,VWS V14.01,2013-06-24 23:50:00,
2013-06-24 19:55:00,81.0,59.6,30.03,SSE,167,0.0,3.6,48,0.00,,---,0.00,VWS V14.01,2013-06-24 23:55:00,
2013-06-24 20:00:00,80.8,59.5,30.03,South,173,0.0,0.0,48,0.00,,---,0.00,VWS V14.01,2013-06-25 00:00:00,
2013-06-24 20:06:00,80.8,60.7,30.03,South,171,2.7,4.0,50,0.00,,---,0.00,VWS V14.01,2013-06-25 00:06:00,
2013-06-24 20:11:00,80.6,60.5,30.03,East,98,2.2,3.6,50,0.00,,---,0.00,VWS V14.01,2013-06-25 00:11:00,
2013-06-24 20:16:00,80.4,60.3,30.03,South,173,0.0,2.7,50,0.00,,---,0.00,VWS V14.01,2013-06-25 00:16:00,
2013-06-24 20:21:00,80.4,59.7,30.03,South,170,0.0,0.0,49,0.00,,---,0.00,VWS V14.01,2013-06-25 00:21:00,
2013-06-24 20:26:00,80.4,60.9,30.03,ESE,113,0.0,0.0,51,0.00,,---,0.00,VWS V14.01,2013-06-25 00:26:00,
2013-06-24 20:31:00,80.4,60.9,30.03,South,182,2.7,2.7,51,0.00,,---,0.00,VWS V14.01,2013-06-25 00:31:00,
2013-06-24 20:36:00,80.2,60.2,30.03,North,357,2.2,3.6,50,0.00,,---,0.00,VWS V14.01,2013-06-25 00:36:00,
2013-06-24 20:41:00,80.2,60.7,30.03,SSE,162,2.2,2.2,51,0.00,,---,0.00,VWS V14.01,2013-06-25 00:41:00,
2013-06-24 20:46:00,80.2,60.7,30.03,SSE,167,0.0,0.0,51,0.00,,---,0.00,VWS V14.01,2013-06-25 00:46:00,
2013-06-24 20:51:00,80.1,61.7,30.03,SSE,168,5.8,6.3,54,0.00,,---,0.00,VWS V14.01,2013-06-25 00:51:00,
2013-06-24 20:56:00,80.1,61.1,30.03,SW,217,0.0,2.2,52,0.00,,---,0.00,VWS V14.01,2013-06-25 00:56:00,
2013-06-24 21:01:00,80.1,61.7,30.03,SSE,159,0.0,0.0,54,0.00,,---,0.00,VWS V14.01,2013-06-25 01:01:00,
2013-06-24 21:07:00,79.9,62.1,30.03,SSE,159,2.2,2.2,55,0.00,,---,0.00,VWS V14.01,2013-06-25 01:07:00,
2013-06-24 21:12:00,79.9,62.6,30.03,South,189,2.7,2.7,56,0.00,,---,0.00,VWS V14.01,2013-06-25 01:12:00,
2013-06-24 21:17:00,79.7,62.5,30.03,South,190,2.7,2.7,56,0.00,,---,0.00,VWS V14.01,2013-06-25 01:17:00,
2013-06-24 21:22:00,79.7,62.5,30.03,SW,214,2.2,3.6,56,0.00,,---,0.00,VWS V14.01,2013-06-25 01:22:00,
2013-06-24 21:28:00,79.5,61.8,30.03,South,190,3.1,3.1,55,0.00,,---,0.00,VWS V14.01,2013-06-25 01:28:00,
2013-06-24 21:33:00,79.5,62.3,30.06,South,190,2.7,3.1,56,0.00,,---,0.00,VWS V14.01,2013-06-25 01:33:00,
2013-06-24 21:38:00,79.5,62.3,30.06,South,190,0.0,0.0,56,0.00,,---,0.00,VWS V14.01,2013-06-25 01:38:00,
2013-06-24 21:43:00,79.5,62.8,30.06,South,190,0.0,0.0,57,0.00,,---,0.00,VWS V14.01,2013-06-25 01:43:00,
2013-06-24 21:48:00,79.3,62.7,30.06,South,181,0.0,0.0,57,0.00,,---,0.00,VWS V14.01,2013-06-25 01:48:00,
2013-06-24 21:53:00,79.3,63.2,30.06,South,181,0.0,0.0,58,0.00,,---,0.00,VWS V14.01,2013-06-25 01:53:00,
2013-06-24 21:58:00,79.2,63.5,30.06,South,181,2.7,2.7,59,0.00,,---,0.00,VWS V14.01,2013-06-25 01:58:00,
2013-06-24 22:03:00,79.2,63.5,30.06,South,181,0.0,0.0,59,0.00,,---,0.00,VWS V14.01,2013-06-25 02:03:00,
2013-06-24 22:08:00,79.2,64.0,30.06,South,181,0.0,0.0,60,0.00,,---,0.00,VWS V14.01,2013-06-25 02:08:00,
2013-06-24 22:13:00,79.0,63.8,30.06,ESE,115,0.0,0.0,60,0.00,,---,0.00,VWS V14.01,2013-06-25 02:13:00,
2013-06-24 22:18:00,79.0,64.8,30.06,South,171,0.0,0.0,62,0.00,,---,0.00,VWS V14.01,2013-06-25 02:18:00,
2013-06-24 22:23:00,79.0,64.8,30.06,South,171,0.0,2.2,62,0.00,,---,0.00,VWS V14.01,2013-06-25 02:23:00,
2013-06-24 22:28:00,79.0,65.3,30.06,South,172,0.0,0.0,63,0.00,,---,0.00,VWS V14.01,2013-06-25 02:28:00,
2013-06-24 22:33:00,78.8,65.2,30.06,South,176,0.0,0.0,63,0.00,,---,0.00,VWS V14.01,2013-06-25 02:33:00,
2013-06-24 22:38:00,78.8,65.2,30.06,South,176,0.0,0.0,63,0.00,,---,0.00,VWS V14.01,2013-06-25 02:38:00,
2013-06-24 22:43:00,78.8,65.2,30.06,South,176,0.0,0.0,63,0.00,,---,0.00,VWS V14.01,2013-06-25 02:43:00,
2013-06-24 22:48:00,78.6,65.5,30.06,South,176,0.0,0.0,64,0.00,,---,0.00,VWS V14.01,2013-06-25 02:48:00,
2013-06-24 22:53:00,78.6,65.5,30.06,SSE,167,0.0,3.1,64,0.00,,---,0.00,VWS V14.01,2013-06-25 02:53:00,
2013-06-24 22:58:00,78.6,65.5,30.06,SSE,167,0.0,0.0,64,0.00,,---,0.00,VWS V14.01,2013-06-25 02:58:00,
2013-06-24 23:03:00,78.6,65.9,30.06,South,175,3.1,3.1,65,0.00,,---,0.00,VWS V14.01,2013-06-25 03:03:00,
2013-06-24 23:09:00,78.6,65.5,30.06,South,177,0.0,0.0,64,0.00,,---,0.00,VWS V14.01,2013-06-25 03:09:00,
2013-06-24 23:14:00,78.6,65.9,30.06,South,177,0.0,0.0,65,0.00,,---,0.00,VWS V14.01,2013-06-25 03:14:00,
2013-06-24 23:19:00,78.4,65.8,30.06,South,177,0.0,0.0,65,0.00,,---,0.00,VWS V14.01,2013-06-25 03:19:00,
2013-06-24 23:24:00,78.4,65.8,30.06,South,177,0.0,0.0,65,0.00,,---,0.00,VWS V14.01,2013-06-25 03:24:00,
2013-06-24 23:30:00,78.4,66.2,30.06,South,179,3.1,3.1,66,0.00,,---,0.00,VWS V14.01,2013-06-25 03:30:00,
2013-06-24 23:35:00,78.4,66.2,30.09,SSW,209,2.7,2.7,66,0.00,,---,0.00,VWS V14.01,2013-06-25 03:35:00,
2013-06-24 23:40:00,78.6,66.4,30.09,South,182,0.0,0.0,66,0.00,,---,0.00,VWS V14.01,2013-06-25 03:40:00,
2013-06-24 23:45:00,78.4,66.7,30.09,South,182,0.0,0.0,67,0.00,,---,0.00,VWS V14.01,2013-06-25 03:45:00,
2013-06-24 23:51:00,78.4,66.7,30.09,South,182,0.0,0.0,67,0.00,,---,0.00,VWS V14.01,2013-06-25 03:51:00,
2013-06-24 23:56:00,78.4,66.7,30.09,South,183,0.0,0.0,67,0.00,,---,0.00,VWS V14.01,2013-06-25 03:56:00,